Hourly Data Report for November 29, 2017

All times are specified in Local Standard Time (LST). Add 1 hour to adjust for Daylight Saving Time where and when it is observed.

DAUPHIN
MANITOBA

51°06'03.000" N
100°03'09.000" W
304.50 m
5040689
71036
YDN

Related Data

No related data is available for this station

Download Data

Hourly Data (November 2017)
Hourly Data Report for November 29, 2017
Temp Definition
°C
Dew Point Temp Definition
°C
Rel Hum Definition
%
Wind Dir Definition
10's deg

Wind Spd Definition
km/h
Visibility Definition
km
Stn Press Definition
kPa
Hmdx Definition


Wind Chill Definition


Weather Definition


TIME
00:00 Legend Double Dagger 1.1 -6.2 59 22 28 16.1 97.64     LegendNANA
01:00 Legend Double Dagger 1.8 -6.1 56 22 28 16.1 97.48     LegendNANA
02:00 Legend Double Dagger 1.9 -5.7 57 22 24 16.1 97.34     LegendNANA
03:00 Legend Double Dagger 2.1 -5.4 58 22 11 16.1 97.30     LegendNANA
04:00 Legend Double Dagger 1.7 -5.4 59 20 9 16.1 97.17     LegendNANA
05:00 Legend Double Dagger 2.9 -5.2 55 22 13 16.1 97.05     LegendNANA
06:00 Legend Double Dagger 4.6 -5.2 49 22 21 16.1 96.88     LegendNANA
07:00 Legend Double Dagger 4.8 -6.1 45 21 15 16.1 96.77     LegendNANA
08:00 Legend Double Dagger 4.5 -5.9 47 LegendMM 9 16.1 96.72     LegendNANA
09:00 Legend Double Dagger 4.0 -5.3 51 24 15 16.1 96.71     LegendNANA
10:00 Legend Double Dagger 3.8 -5.1 53 21 17 16.1 96.56     LegendNANA
11:00 Legend Double Dagger 3.6 -4.6 55 21 17 16.1 96.46     LegendNANA
12:00 Legend Double Dagger 2.9 -4.2 60 25 13 16.1 96.35     LegendNANA
13:00 Legend Double Dagger 2.8 -3.7 62 25 13 16.1 96.32     LegendNANA
14:00 Legend Double Dagger 2.6 -3.3 65 27 21 16.1 96.30     LegendNANA
15:00 Legend Double Dagger 2.2 -2.3 72 28 21 16.1 96.30     LegendNANA
16:00 Legend Double Dagger 0.7 -0.2 94 28 24 11.3 96.45     Snow
17:00 Legend Double Dagger 0.5 0.2 98 29 18 4.0 96.60     Snow
18:00 Legend Double Dagger 0.8 0.7 99 26 17 16.1 96.67     LegendNANA
19:00 Legend Double Dagger 1.3 -0.2 90 28 24 16.1 96.78     LegendNANA
20:00 Legend Double Dagger 0.9 -1.0 87 28 28 16.1 96.89     LegendNANA
21:00 Legend Double Dagger -0.3 -2.2 87 27 26 16.1 97.04   -6 LegendNANA
22:00 Legend Double Dagger -0.9 -3.1 85 28 34 16.1 97.10   -8 LegendNANA
23:00 Legend Double Dagger -0.5 -3.0 83 27 32 16.1 97.21   -7 LegendNANA

Notes on Data Quality.

Legend

  • E = Estimated
  • M = Missing
  • NA = Not Available
  • ‡ = Partner data that is not subject to review by the National Climate Archives
Date modified: